EW6143 Weather Reports


Display with metric or nautical units.
time (UTC)temp
F
wind
direction
speed
MPH
gust
MPH
rain 1hr
in
rain 24hr
in
rain mn
in
humidity
%
barometer
mb
20260831200034 99 260 3.0 12.0 0.00 0.00 0.00 33 1015.4
20260831194538 99 311 6.0 12.0 0.00 0.00 0.00 35 1015.7
20260831193032 101 304 2.0 14.0 0.00 0.00 0.00 36 1016.0
20260831191536 98 319 4.0 12.0 0.00 0.00 0.00 38 1016.0
20260831190042 97 331 3.0 14.0 0.00 0.00 0.00 38 1016.2
20260831184536 97 360 6.0 11.0 0.00 0.00 0.00 38 1016.3
20260831183032 96 296 4.0 14.0 0.00 0.00 0.00 39 1016.5
20260831181536 96 279 6.0 11.0 0.00 0.00 0.00 38 1016.7
20260831180049 97 333 3.0 12.0 0.00 0.00 0.00 40 1016.8
20260831174534 96 323 2.0 7.0 0.00 0.00 0.00 44 1017.2
20260831173034 96 341 1.0 8.0 0.00 0.00 0.00 44 1017.4
20260831171535 95 13 2.0 8.0 0.00 0.00 0.00 45 1017.6
20260831170035 94 342 2.0 9.0 0.00 0.00 0.00 46 1017.8
20260831164541 93 283 6.0 12.0 0.00 0.00 0.00 47 1017.9
20260831163037 93 5 3.0 9.0 0.00 0.00 0.00 46 1017.9
20260831161541 92 15 5.0 11.0 0.00 0.00 0.00 46 1018.0
20260831160036 92 321 3.0 9.0 0.00 0.00 0.00 47 1017.9
20260831154601 91 355 3.0 8.0 0.00 0.00 0.00 48 1018.0
20260831153039 91 339 2.0 9.0 0.00 0.00 0.00 50 1017.8
20260831151536 89 342 3.0 10.0 0.00 0.00 0.00 52 1018.0
20260831150038 88 17 3.0 8.0 0.00 0.00 0.00 56 1017.8
20260831144545 86 341 3.0 7.0 0.00 0.00 0.00 60 1017.7
20260831143039 86 11 2.0 8.0 0.00 0.00 0.00 61 1017.8
20260831141537 84 319 3.0 6.0 0.00 0.00 0.00 63 1017.8
20260831140036 84 5 2.0 7.0 0.00 0.00 0.00 66 1017.7
20260831134535 83 352 3.0 7.0 0.00 0.00 0.00 68 1017.5
20260831133036 82 328 1.0 4.0 0.00 0.00 0.00 70 1017.5
20260831131536 80 311 2.0 4.0 0.00 0.00 0.00 72 1017.1
20260831130037 79 311 0.0 3.0 0.00 0.00 0.00 73 1017.0
20260831124536 78 315 0.0 2.0 0.00 0.00 0.00 73 1016.8
20260831123036 78 315 0.0 2.0 0.00 0.00 0.00 73 1016.6
20260831121536 78 0 1.0 3.0 0.00 0.00 0.00 71 1016.3
20260831120042 78 0 1.0 4.0 0.00 0.00 0.00 70 1016.1
20260831114538 79 295 2.0 3.0 0.00 0.00 0.00 69 1015.9
20260831113035 79 302 1.0 4.0 0.00 0.00 0.00 69 1015.8
20260831111533 79 0 1.0 4.0 0.00 0.00 0.00 68 1015.5
20260831110041 79 290 2.0 4.0 0.00 0.00 0.00 67 1015.4
20260831104536 79 281 1.0 3.0 0.00 0.00 0.00 67 1015.5
20260831103036 80 0 0.0 0.0 0.00 0.00 0.00 66 1015.3
20260831101546 80 0 0.0 0.0 0.00 0.00 0.00 65 1015.4
20260831100034 81 0 0.0 5.0 0.00 0.00 0.00 65 1015.5
20260831094536 81 0 1.0 4.0 0.00 0.00 0.00 63 1015.3
20260831093039 81 301 1.0 4.0 0.00 0.00 0.00 62 1015.2
20260831091551 81 288 1.0 4.0 0.00 0.00 0.00 61 1015.1
20260831090035 81 275 1.0 4.0 0.00 0.00 0.00 61 1014.9
20260831084539 81 304 0.0 2.0 0.00 0.00 0.00 60 1014.9
20260831083037 81 0 0.0 0.0 0.00 0.00 0.00 60 1014.8
20260831081538 81 0 0.0 2.0 0.00 0.00 0.00 60 1014.7
20260831080056 81 304 1.0 3.0 0.00 0.00 0.00 61 1014.7
20260831074538 82 308 1.0 4.0 0.00 0.00 0.00 61 1014.5
20260831073058 82 0 0.0 0.0 0.00 0.00 0.00 61 1014.5
20260831071542 82 0 0.0 0.0 0.00 0.00 0.00 62 1014.3
20260831070034 82 0 0.0 1.0 0.00 0.00 0.00 61 1014.4
20260831064539 82 0 0.0 1.0 0.00 0.00 0.00 60 1014.7
20260831063042 82 0 0.0 1.0 0.00 0.00 0.00 59 1014.5
20260831061535 82 0 0.0 2.0 0.00 0.00 0.00 59 1014.5
20260831060042 83 0 0.0 1.0 0.00 0.00 0.00 59 1014.5
20260831054543 83 0 0.0 1.0 0.00 0.00 0.00 59 1014.7
20260831053044 83 0 0.0 1.0 0.00 0.00 0.00 59 1014.6
20260831051539 84 0 0.0 0.0 0.00 0.00 0.00 58 1014.5
20260831050037 84 0 0.0 0.0 0.00 0.00 0.00 57 1014.4
20260831044546 85 0 0.0 0.0 0.00 0.00 0.00 55 1014.4
20260831043037 86 0 0.0 0.0 0.00 0.00 0.00 54 1014.4
20260831041540 86 0 0.0 0.0 0.00 0.00 0.00 53 1014.3
20260831040035 86 0 0.0 0.0 0.00 0.00 0.00 52 1014.3
20260831034534 87 0 0.0 0.0 0.00 0.00 0.00 51 1014.0
20260831033040 87 0 0.0 0.0 0.00 0.00 0.00 50 1014.1
20260831031537 88 0 0.0 0.0 0.00 0.00 0.00 49 1014.1
20260831030035 89 0 0.0 0.0 0.00 0.00 0.00 47 1014.0
20260831024535 90 0 0.0 0.0 0.00 0.00 0.00 46 1013.8
20260831023035 90 0 0.0 2.0 0.00 0.00 0.00 45 1013.7
20260831021545 91 0 0.0 2.0 0.00 0.00 0.00 44 1013.5
20260831020037 91 0 0.0 1.0 0.00 0.00 0.00 42 1013.3
20260831014537 92 0 0.0 2.0 0.00 0.00 0.00 41 1013.2
20260831013040 93 284 1.0 4.0 0.00 0.00 0.00 40 1012.9
20260831011544 94 281 1.0 3.0 0.00 0.00 0.00 39 1012.7
20260831010044 95 287 1.0 4.0 0.00 0.00 0.00 38 1012.6
20260831004534 96 299 1.0 6.0 0.00 0.00 0.00 36 1012.5
20260831003037 96 285 1.0 6.0 0.00 0.00 0.00 36 1012.5
20260831001539 97 327 3.0 9.0 0.00 0.00 0.00 35 1012.5
20260831000039 97 293 4.0 9.0 0.00 0.00 0.00 35 1012.6
20260830234535 97 254 3.0 8.0 0.00 0.00 0.00 34 1012.8
20260830233037 98 330 5.0 11.0 0.00 0.00 0.00 34 1012.9
20260830231537 98 330 4.0 11.0 0.00 0.00 0.00 34 1012.8
20260830230035 98 355 2.0 11.0 0.00 0.00 0.00 35 1013.0
20260830224538 99 308 5.0 12.0 0.00 0.00 0.00 33 1013.0
20260830223036 99 245 7.0 14.0 0.00 0.00 0.00 33 1013.1
20260830221536 99 340 3.0 11.0 0.00 0.00 0.00 34 1013.0
20260830220040 100 324 2.0 11.0 0.00 0.00 0.00 33 1013.1
20260830214538 99 287 7.0 12.0 0.00 0.00 0.00 32 1013.1
20260830213034 100 351 5.0 12.0 0.00 0.00 0.00 30 1013.3
20260830211538 100 289 4.0 14.0 0.00 0.00 0.00 31 1013.4
20260830210037 99 346 6.0 11.0 0.00 0.00 0.00 33 1013.6
20260830204537 99 343 5.0 11.0 0.00 0.00 0.00 33 1013.9
20260830203037 99 287 4.0 11.0 0.00 0.00 0.00 34 1014.2
20260830201535 100 336 6.0 13.0 0.00 0.00 0.00 34 1014.3